| time (UTC) | temp F | wind direction | speed MPH | gust MPH | rain 1hr in | rain 24hr in | rain mn in | humidity % | barometer mb |
| 20260902091542 | 76 | 0 | 0.0 | 0.0 | 0.00 | 0.21 | 0.00 | 98 | 1015.9 |
| 20260902090033 | 76 | 0 | 0.0 | 0.0 | 0.00 | 0.21 | 0.00 | 98 | 1016.0 |
| 20260902084533 | 77 | 0 | 0.0 | 0.0 | 0.00 | 0.21 | 0.00 | 98 | 1016.1 |
| 20260902083031 | 77 | 0 | 0.0 | 0.0 | 0.00 | 0.21 | 0.00 | 98 | 1016.0 |
| 20260902081529 | 77 | 0 | 0.0 | 1.0 | 0.00 | 0.21 | 0.00 | 98 | 1015.8 |
| 20260902080033 | 77 | 0 | 0.0 | 0.0 | 0.00 | 0.21 | 0.00 | 98 | 1015.9 |
| 20260902074534 | 76 | 0 | 0.0 | 0.0 | 0.00 | 0.21 | 0.00 | 98 | 1016.0 |
| 20260902073034 | 76 | 0 | 0.0 | 0.0 | 0.00 | 0.21 | 0.00 | 97 | 1016.2 |
| 20260902071534 | 77 | 0 | 0.0 | 0.0 | 0.00 | 0.21 | 0.00 | 97 | 1016.3 |
| 20260902070033 | 77 | 0 | 0.0 | 0.0 | 0.00 | 0.21 | 0.00 | 97 | 1016.3 |
| 20260902064534 | 76 | 0 | 0.0 | 0.0 | 0.00 | 0.21 | 0.00 | 97 | 1016.3 |
| 20260902063031 | 77 | 0 | 0.0 | 0.0 | 0.00 | 0.21 | 0.00 | 97 | 1016.6 |
| 20260902061541 | 77 | 0 | 0.0 | 0.0 | 0.00 | 0.21 | 0.00 | 97 | 1016.7 |
| 20260902060037 | 77 | 0 | 0.0 | 1.0 | 0.00 | 0.21 | 0.00 | 97 | 1016.9 |
| 20260902054535 | 77 | 0 | 0.0 | 0.0 | 0.00 | 0.21 | 0.00 | 97 | 1017.1 |
| 20260902053037 | 77 | 0 | 0.0 | 1.0 | 0.00 | 0.21 | 0.00 | 97 | 1017.0 |
| 20260902051534 | 77 | 0 | 0.0 | 1.0 | 0.00 | 0.21 | 0.00 | 97 | 1016.9 |
| 20260902050033 | 77 | 21 | 0.0 | 1.0 | 0.00 | 0.21 | 0.00 | 97 | 1017.0 |
| 20260902044531 | 77 | 0 | 0.0 | 0.0 | 0.00 | 0.21 | 0.00 | 97 | 1017.0 |
| 20260902043033 | 77 | 0 | 0.0 | 0.0 | 0.00 | 0.21 | 0.00 | 97 | 1017.0 |
| 20260902041534 | 77 | 0 | 0.0 | 1.0 | 0.00 | 0.21 | 0.00 | 97 | 1017.1 |
| 20260902040030 | 77 | 0 | 0.0 | 3.0 | 0.00 | 0.21 | 0.00 | 97 | 1017.6 |
| 20260902034534 | 77 | 0 | 0.0 | 1.0 | 0.00 | 0.22 | 0.21 | 97 | 1017.6 |
| 20260902033041 | 77 | 0 | 0.0 | 1.0 | 0.00 | 0.22 | 0.21 | 97 | 1017.6 |
| 20260902031533 | 77 | 0 | 0.0 | 0.0 | 0.00 | 0.22 | 0.21 | 97 | 1017.8 |
| 20260902030033 | 77 | 0 | 0.0 | 1.0 | 0.00 | 0.22 | 0.21 | 97 | 1017.9 |
| 20260902024532 | 76 | 0 | 0.0 | 0.0 | 0.00 | 0.85 | 0.21 | 97 | 1017.9 |
| 20260902023031 | 77 | 0 | 0.0 | 0.0 | 0.00 | 0.85 | 0.21 | 97 | 1017.8 |
| 20260902021536 | 76 | 0 | 0.0 | 0.0 | 0.00 | 0.85 | 0.21 | 96 | 1017.5 |
| 20260902020032 | 77 | 0 | 0.0 | 1.0 | 0.00 | 0.85 | 0.21 | 96 | 1017.6 |
| 20260902014539 | 77 | 0 | 0.0 | 0.0 | 0.00 | 0.86 | 0.21 | 96 | 1017.3 |
| 20260902013034 | 77 | 0 | 0.0 | 0.0 | 0.00 | 0.86 | 0.21 | 96 | 1017.1 |
| 20260902011537 | 77 | 0 | 0.0 | 1.0 | 0.01 | 0.86 | 0.21 | 96 | 1017.2 |
| 20260902010052 | 77 | 0 | 0.0 | 1.0 | 0.01 | 0.86 | 0.21 | 95 | 1017.2 |
| 20260902004541 | 76 | 0 | 0.0 | 1.0 | 0.01 | 0.86 | 0.21 | 95 | 1017.3 |
| 20260902003033 | 77 | 224 | 0.0 | 1.0 | 0.02 | 0.86 | 0.21 | 96 | 1017.1 |
| 20260902001533 | 76 | 0 | 0.0 | 1.0 | 0.03 | 0.85 | 0.20 | 96 | 1017.0 |
| 20260902000047 | 76 | 301 | 0.0 | 2.0 | 0.05 | 0.85 | 0.20 | 95 | 1017.2 |
| 20260901234559 | 76 | 0 | 0.0 | 3.0 | 0.14 | 0.85 | 0.20 | 95 | 1017.3 |
| 20260901233031 | 76 | 289 | 0.0 | 4.0 | 0.14 | 0.84 | 0.19 | 94 | 1017.6 |
| 20260901231545 | 77 | 0 | 0.0 | 5.0 | 0.11 | 0.81 | 0.16 | 94 | 1017.3 |
| 20260901230033 | 77 | 0 | 0.0 | 6.0 | 0.10 | 0.80 | 0.15 | 92 | 1017.6 |
| 20260901224537 | 79 | 304 | 3.0 | 18.0 | 0.00 | 0.81 | 0.05 | 88 | 1018.1 |
| 20260901223044 | 83 | 234 | 2.0 | 15.0 | 0.00 | 0.81 | 0.05 | 81 | 1017.3 |
| 20260901221537 | 86 | 0 | 1.0 | 3.0 | 0.00 | 0.81 | 0.05 | 81 | 1017.0 |
| 20260901220037 | 86 | 0 | 0.0 | 4.0 | 0.00 | 0.81 | 0.05 | 81 | 1016.7 |
| 20260901214535 | 87 | 79 | 0.0 | 4.0 | 0.00 | 0.81 | 0.05 | 80 | 1016.6 |
| 20260901213032 | 87 | 98 | 1.0 | 6.0 | 0.00 | 0.81 | 0.05 | 81 | 1016.3 |
| 20260901211542 | 87 | 80 | 2.0 | 9.0 | 0.00 | 0.81 | 0.05 | 80 | 1015.8 |
| 20260901210033 | 87 | 61 | 2.0 | 8.0 | 0.00 | 0.81 | 0.05 | 80 | 1016.0 |
| 20260901204542 | 88 | 159 | 3.0 | 8.0 | 0.00 | 0.81 | 0.05 | 80 | 1016.0 |
| 20260901203034 | 88 | 101 | 3.0 | 7.0 | 0.00 | 0.81 | 0.05 | 80 | 1015.6 |
| 20260901201532 | 88 | 87 | 2.0 | 8.0 | 0.00 | 0.81 | 0.05 | 79 | 1016.0 |
| 20260901200052 | 88 | 82 | 2.0 | 8.0 | 0.00 | 0.81 | 0.05 | 80 | 1016.1 |
| 20260901194545 | 88 | 83 | 1.0 | 8.0 | 0.00 | 0.81 | 0.05 | 81 | 1016.5 |
| 20260901193034 | 88 | 76 | 1.0 | 9.0 | 0.00 | 0.81 | 0.05 | 80 | 1016.8 |
| 20260901191534 | 88 | 90 | 3.0 | 10.0 | 0.00 | 0.81 | 0.05 | 79 | 1016.8 |
| 20260901190036 | 88 | 77 | 2.0 | 7.0 | 0.00 | 0.81 | 0.05 | 79 | 1016.9 |
| 20260901184533 | 88 | 122 | 3.0 | 8.0 | 0.00 | 0.81 | 0.05 | 78 | 1017.2 |
| 20260901183040 | 88 | 51 | 1.0 | 7.0 | 0.00 | 0.81 | 0.05 | 79 | 1017.5 |
| 20260901181535 | 87 | 87 | 1.0 | 7.0 | 0.00 | 0.81 | 0.05 | 80 | 1017.7 |
| 20260901180031 | 87 | 93 | 0.0 | 6.0 | 0.00 | 0.81 | 0.05 | 80 | 1017.6 |
| 20260901174530 | 88 | 76 | 0.0 | 4.0 | 0.00 | 0.85 | 0.05 | 79 | 1017.6 |
| 20260901173031 | 87 | 52 | 1.0 | 5.0 | 0.00 | 0.85 | 0.05 | 79 | 1017.9 |
| 20260901171533 | 87 | 95 | 1.0 | 4.0 | 0.00 | 0.85 | 0.05 | 80 | 1018.3 |
| 20260901170031 | 88 | 103 | 2.0 | 6.0 | 0.00 | 0.85 | 0.05 | 78 | 1018.4 |
| 20260901164531 | 89 | 117 | 0.0 | 4.0 | 0.00 | 0.85 | 0.05 | 76 | 1018.3 |
| 20260901163031 | 89 | 47 | 1.0 | 4.0 | 0.00 | 0.85 | 0.05 | 78 | 1018.5 |
| 20260901161532 | 87 | 0 | 1.0 | 3.0 | 0.00 | 0.85 | 0.05 | 80 | 1018.6 |
| 20260901160032 | 86 | 0 | 0.0 | 3.0 | 0.00 | 0.85 | 0.05 | 83 | 1018.6 |
| 20260901154537 | 86 | 0 | 0.0 | 2.0 | 0.00 | 0.85 | 0.05 | 81 | 1018.4 |
| 20260901153038 | 87 | 0 | 0.0 | 1.0 | 0.00 | 0.85 | 0.05 | 81 | 1018.5 |
| 20260901151535 | 86 | 74 | 0.0 | 3.0 | 0.00 | 0.85 | 0.05 | 81 | 1018.5 |
| 20260901150037 | 87 | 0 | 0.0 | 1.0 | 0.00 | 0.85 | 0.05 | 80 | 1018.4 |
| 20260901144538 | 86 | 0 | 0.0 | 3.0 | 0.00 | 0.85 | 0.05 | 83 | 1018.2 |
| 20260901143041 | 86 | 21 | 0.0 | 3.0 | 0.00 | 0.85 | 0.05 | 84 | 1018.0 |
| 20260901141534 | 84 | 0 | 1.0 | 4.0 | 0.00 | 0.85 | 0.05 | 87 | 1018.3 |
| 20260901140035 | 83 | 0 | 0.0 | 4.0 | 0.00 | 0.85 | 0.05 | 90 | 1018.1 |
| 20260901134535 | 82 | 0 | 1.0 | 6.0 | 0.00 | 0.85 | 0.05 | 93 | 1017.8 |
| 20260901133042 | 81 | 34 | 0.0 | 3.0 | 0.00 | 0.85 | 0.05 | 94 | 1017.9 |
| 20260901131535 | 80 | 307 | 0.0 | 2.0 | 0.00 | 0.85 | 0.05 | 95 | 1017.9 |
| 20260901130034 | 80 | 311 | 0.0 | 5.0 | 0.00 | 0.85 | 0.05 | 96 | 1017.7 |
| 20260901124538 | 79 | 313 | 0.0 | 3.0 | 0.00 | 0.86 | 0.05 | 97 | 1017.5 |
| 20260901123031 | 78 | 309 | 0.0 | 1.0 | 0.00 | 0.86 | 0.05 | 98 | 1017.5 |
| 20260901121545 | 78 | 309 | 0.0 | 0.0 | 0.00 | 0.86 | 0.05 | 98 | 1017.5 |
| 20260901120031 | 78 | 0 | 0.0 | 0.0 | 0.00 | 0.86 | 0.05 | 98 | 1017.3 |
| 20260901114532 | 77 | 0 | 0.0 | 2.0 | 0.00 | 0.86 | 0.05 | 98 | 1017.1 |
| 20260901113033 | 77 | 0 | 0.0 | 1.0 | 0.00 | 0.86 | 0.05 | 98 | 1017.0 |
| 20260901111540 | 77 | 0 | 0.0 | 2.0 | 0.00 | 0.86 | 0.05 | 98 | 1016.8 |
| 20260901110042 | 77 | 309 | 0.0 | 1.0 | 0.02 | 0.86 | 0.05 | 98 | 1016.7 |
| 20260901104534 | 77 | 0 | 0.0 | 0.0 | 0.05 | 0.86 | 0.05 | 98 | 1016.5 |
| 20260901103033 | 77 | 0 | 0.0 | 3.0 | 0.05 | 0.86 | 0.05 | 98 | 1016.4 |
| 20260901101534 | 77 | 309 | 0.0 | 3.0 | 0.05 | 0.86 | 0.05 | 98 | 1016.3 |
| 20260901100032 | 77 | 233 | 1.0 | 3.0 | 0.02 | 0.83 | 0.02 | 98 | 1016.6 |
| 20260901094534 | 77 | 336 | 0.0 | 1.0 | 0.00 | 0.81 | 0.00 | 98 | 1016.4 |
| 20260901093128 | 77 | 307 | 0.0 | 0.0 | 0.00 | 0.81 | 0.00 | 98 | 1016.2 |